sat.trackr.live / text

‹ back to catalog

GALAXY 28 (G-28)

NORAD 28702 · 2005-022A

PAYLOAD ACTIVE UNKNOWN

§ Identity

Operator
Country
ITSO
Launch date
2005-06-23
Launch site
SEAL
Launch vehicle
Mass (kg)
RCS (m²)
16.80

Purposes: comms

External: N2YO · Heavens-Above · Gunter

§ Orbital elements

Epoch: 2026-05-25T03:03:45.815040Z

Period
1,436.15 min
Inclination
3.2420°
Eccentricity
0.0003062
Mean motion
1.00268037 rev/d
Perigee alt
35,774.7 km
Apogee alt
35,800.6 km
Semi-major
42,165.8 km
B*
0.0000e+0
RAAN
79.2136°
Arg perigee
345.6013°
Mean anomaly
196.7294°
Rev number
5,174

§ Raw data

GALAXY 28 (G-28)1 28702U 05022A   26145.12761360 -.00000202  00000+0  00000+0 0  99952 28702   3.2420  79.2136 0003062 345.6013 196.7294  1.00268037 51745

JSON: /api/v1/satellites/28702 · /tle

For live sub-satellite position, see the globe view (requires WebGL).

§ Visibility from observer

Set your observer location to see the next 7 days of passes ≥ 10°. The values pass through the URL so the page stays shareable.

No JS? Fill the form by hand. The geolocation button needs JavaScript.